Zurück zum Katalog

USA 371

AktivMilitärVLEO
NORAD 59831·PAYLOAD·🇺🇸 United States

Gestartet May 22, 2024 von Vandenberg Space Force Base

Loading…

Nächste Überflüge (nächste 24 Stunden)

TLE

VeraltetSource: Mike McCants

Epoche: Aug 25, 2026, 20:13 UTC

1 59831U 24096T   26237.84295130 0.00000000  00000-0  00000-0 0    02
2 59831  70.0232 137.0379 0003004 127.9261 232.0738 14.96713072    02

Verfolge USA 371 in Echtzeit mit AllMySat

Download on the App Store